Regional Weather Roundup
Issued by NWS

Home | Current Version | Previous Version | Graphics & Text | Print | Product List | Glossary Off
Versions: 1 2 3 4 5 6 7 8 9 10 11 12 13 14 15 16 17 18 19 20 21 22 23 24 25 26 27 28 29 30 31 32 33 34 35 36 37 38 39 40 41 42 43 44 45 46 47 48 49 50

000
ASUS43 KTOP 271959
RWRKS

WEATHER ROUNDUP FOR KANSAS
NATIONAL WEATHER SERVICE GOODLAND KS
200 PM CST MON FEB 27 2017

NOTE:  "FAIR" INDICATES FEW OR NO CLOUDS BELOW 12,000 FEET WITH NO
SIGNIFICANT WEATHER AND/OR OBSTRUCTIONS TO VISIBILITY.

KSZ001>006-013>018-027>032-041>047-272100-
NORTHWEST KANSAS

CITY           SKY/WX    TMP DP  RH WIND       PRES   REMARKS
GOODLAND       SUNNY     59   9  13 SW18      29.63F
HAYS           SUNNY     61  28  28 SW15G21   29.71F
HILL CITY      SUNNY     57  26  30 SW10      29.70F
RUSSELL        SUNNY     60  36  40 S20G28    29.70F
$$

KSZ061>065-074>080-084>089-272100-
SOUTHWEST KANSAS

CITY           SKY/WX    TMP DP  RH WIND       PRES   REMARKS
DODGE CITY     SUNNY     63  19  18 SW17G30   29.71F
ELKHART          N/A     59  21  23 SW12        N/A
GARDEN CITY    SUNNY     62  16  16 SW20G29   29.69F
GREAT BEND     SUNNY     63  37  38 S22       29.72F
LIBERAL        SUNNY     64  23  20 SW24G31   29.71F
$$

KSZ066>073-081>083-090>101-272100-
SOUTHEAST KANSAS

CITY           SKY/WX    TMP DP  RH WIND       PRES   REMARKS
CHANUTE        CLOUDY    62  43  49 S16       29.88F
COFFEYVILLE    PTSUNNY   65  50  58 S17       29.89F
HUTCHINSON     CLOUDY    55  46  71 S23       29.78F
MEDICINE LODGE   N/A     55  45  68 S12       29.76F
NEWTON         PTSUNNY   58  47  66 S17G24    29.80F
PARSONS        CLOUDY    63  45  51 S14G22    29.89F
WICHITA INTL   PTSUNNY   57  47  69 S20       29.81F
WICHITA JABRA  PTSUNNY   58  47  66 S18G25    29.81F
WINFIELD       CLOUDY    57  48  72 S9        29.85F
$$

KSZ007>012-019>026-033>040-048>060-102>105-272100-
NORTHEAST KANSAS

CITY           SKY/WX    TMP DP  RH WIND       PRES   REMARKS
CONCORDIA      MOSUNNY   57  41  55 SE29G36   29.74F
EMPORIA        MOSUNNY   62  42  47 SE18G25   29.82F
LAWRENCE         N/A    N/A N/A N/A MISG      29.88F
MANHATTAN      CLOUDY    58  40  51 SE14G26   29.81F
OLATHE IND     PTSUNNY   62  35  36 S17       29.89F
OLATHE EXE     MOSUNNY   60  33  36 S12       29.89F
SALINA         PTSUNNY   60  46  59 S17G29    29.77F
TOPEKA BILLARD CLOUDY    61  39  44 SE18G25   29.85F
TOPEKA FORBES  PTSUNNY   62  38  40 S21G26    29.85F
$$




USA.gov is the U.S. government's official web portal to all federal, state and local government web resources and services.